Temp
20 21 21 20 20 18 18 16 15 15 16 16 15 14 13 13 12 13 13 13 14 13 13 12 12 11 11 11 10 10 10 10
20 21 21 20 19 18 17 16 16 17 16 16 15 13 12 11 11 12 13 13 13 12 12 11 11 10 10 10 10 10 9 9
20 21 19 17 17 17 16 16 18 17 16 15 13 12 11 12 12 12 12 12 12 12 12 11 10 9 9 9 9 9 9 8
19 19 16 15 14 14 15 17 18 17 14 14 12 12 11 11 11 11 11 11 11 11 11 11 11 10 10 9 9 8 8 8
15 15 15 14 13 13 13 13 13 12 12 12 11 12 12 10 11 10 11 10 10 10 10 10 10 9 9 9 9 8 8 8
14 13 13 13 13 13 12 11 11 12 12 12 12 12 11 10 10 11 10 10 9 9 9 9 9 9 9 8 9 8 8 8
14 14 13 12 12 12 12 11 12 12 12 12 12 12 11 11 11 11 10 9 9 8 8 8 8 8 8 8 8 7 8 8
14 14 13 12 12 12 12 12 13 12 13 13 13 12 11 11 10 10 9 9 8 8 8 8 7 7 7 7 7 7 7 7
15 15 14 14 14 14 14 14 14 14 14 13 13 11 11 10 10 9 9 8 8 7 7 7 7 7 7 7 7 6 6 6
15 15 15 15 15 15 14 14 13 13 12 12 11 11 11 10 9 9 8 8 7 7 7 7 7 7 7 6 6 6 5 5
13 13 14 14 14 14 14 14 13 13 12 12 11 11 10 9 9 9 8 7 7 7 7 7 7 7 6 6 5 4 4 4
12 13 13 13 14 14 14 13 13 13 12 12 10 10 9 9 8 8 7 7 7 6 6 6 6 6 5 5 4 3 3 2
13 13 13 13 13 13 13 13 12 12 12 11 10 9 9 8 7 7 6 6 6 6 6 5 5 4 4 3 3 3 2 2
13 13 13 13 13 13 12 12 12 11 11 11 10 9 8 7 7 6 6 5 5 5 5 5 5 4 3 2 2 1 0 0
13 13 12 12 12 11 11 11 11 11 11 10 9 8 7 7 7 6 5 4 4 4 4 4 3 3 2 1 1 -0 -1 -2
12 12 12 12 11 10 10 10 10 10 10 9 9 8 7 6 6 5 5 4 3 3 3 3 2 2 1 1 0 -1 -2 -3
12 12 12 12 9 9 9 8 9 9 8 8 7 7 6 6 5 5 4 3 3 3 2 1 1 1 0 -0 -1 -2 -3 -4
10 9 8 8 8 8 8 8 8 7 6 6 5 5 5 4 4 4 3 2 2 2 1 0 0 -0 -2 -1 -2 -2 -4 -4
7 7 7 7 7 7 7 7 6 6 5 5 5 4 2 1 -0 -0 0 0 1 -0 -0 -1 -1 -2 -2 -2 -3 -4 -5 -5
Height
1483 1483 1483 1484 1487 1490 1495 1500 1505 1509 1514 1517 1518 1521 1523 1526 1528 1529 1529 1530 1530 1531 1531 1532 1533 1535 1535 1536 1537 1540 1542 1542
1480 1478 1479 1480 1481 1484 1488 1495 1500 1508 1512 1517 1519 1522 1524 1526 1527 1527 1527 1528 1529 1528 1529 1530 1531 1533 1534 1534 1535 1536 1538 1540
1477 1475 1475 1478 1480 1482 1487 1493 1498 1503 1507 1513 1520 1523 1524 1526 1527 1526 1525 1527 1527 1527 1527 1527 1529 1530 1531 1532 1533 1534 1534 1537
1476 1474 1474 1478 1481 1484 1486 1489 1495 1502 1506 1508 1513 1517 1521 1524 1524 1524 1525 1526 1526 1525 1525 1525 1526 1526 1527 1527 1529 1531 1533 1534
1476 1475 1476 1478 1482 1486 1488 1491 1495 1501 1508 1511 1513 1514 1518 1523 1522 1523 1525 1525 1525 1524 1523 1522 1522 1522 1523 1524 1525 1527 1528 1531
1478 1477 1478 1480 1482 1487 1493 1496 1502 1508 1511 1513 1514 1516 1518 1520 1522 1522 1522 1521 1520 1521 1521 1519 1518 1518 1518 1521 1521 1523 1523 1525
1483 1481 1481 1483 1486 1490 1493 1498 1504 1507 1511 1513 1514 1517 1519 1520 1521 1519 1517 1516 1517 1516 1516 1515 1515 1515 1515 1515 1516 1518 1519 1519
1489 1486 1487 1487 1488 1492 1497 1501 1504 1505 1508 1510 1511 1513 1515 1516 1517 1519 1517 1515 1513 1515 1514 1512 1511 1512 1512 1511 1511 1512 1515 1515
1496 1493 1492 1491 1491 1494 1497 1499 1501 1503 1505 1505 1505 1508 1509 1509 1511 1512 1512 1513 1511 1510 1510 1509 1509 1508 1508 1509 1508 1508 1510 1510
1501 1500 1497 1495 1495 1495 1496 1499 1501 1502 1505 1506 1506 1506 1506 1507 1508 1507 1507 1508 1509 1506 1506 1506 1507 1506 1505 1505 1504 1505 1505 1506
1502 1502 1501 1500 1499 1497 1496 1497 1498 1499 1502 1503 1503 1503 1503 1503 1503 1504 1503 1504 1505 1502 1503 1503 1503 1503 1503 1502 1501 1501 1501 1503
1503 1502 1501 1500 1499 1497 1496 1496 1496 1496 1498 1499 1499 1499 1499 1498 1498 1499 1500 1500 1500 1499 1498 1498 1498 1498 1498 1498 1498 1497 1498 1500
1499 1500 1499 1498 1497 1495 1494 1494 1494 1494 1493 1494 1495 1494 1493 1494 1494 1494 1495 1495 1495 1495 1494 1494 1494 1494 1495 1495 1495 1494 1494 1495
1494 1494 1492 1491 1490 1490 1490 1490 1491 1491 1490 1489 1489 1490 1490 1490 1489 1488 1489 1488 1489 1489 1489 1490 1489 1490 1491 1490 1491 1492 1493 1492
1487 1485 1483 1486 1485 1485 1486 1487 1487 1488 1487 1486 1486 1485 1485 1485 1484 1483 1483 1482 1481 1482 1483 1484 1485 1485 1485 1485 1487 1488 1488 1491
1480 1479 1476 1476 1478 1479 1480 1482 1484 1483 1483 1483 1483 1482 1481 1481 1479 1478 1476 1475 1475 1475 1477 1479 1480 1481 1481 1480 1482 1483 1485 1487
1477 1475 1472 1470 1472 1473 1476 1478 1479 1479 1480 1480 1480 1479 1477 1475 1473 1471 1470 1471 1471 1471 1472 1474 1476 1476 1477 1476 1478 1480 1482 1483
1474 1472 1471 1470 1470 1473 1474 1474 1473 1473 1474 1475 1475 1474 1473 1471 1468 1466 1465 1466 1466 1467 1468 1470 1473 1473 1474 1476 1476 1477 1477 1480
1472 1472 1472 1472 1470 1472 1472 1471 1470 1470 1470 1470 1469 1468 1468 1467 1465 1462 1462 1462 1463 1463 1465 1466 1468 1471 1473 1473 1474 1475 1476 1478
Wind_Speed
14 15 16 24 33 34 31 28 26 22 18 19 19 20 17 16 16 15 14 16 16 15 14 14 12 11 11 11 11 12 13 14
17 16 16 19 27 33 33 30 28 20 15 13 12 15 12 13 14 17 17 16 16 15 14 14 13 13 14 15 15 14 15 16
17 14 11 19 25 31 30 29 25 19 12 8 8 9 12 16 19 18 17 16 16 15 16 16 16 15 15 16 15 15 17 20
17 12 8 17 23 26 27 27 23 20 14 11 8 14 13 17 18 19 17 16 16 16 16 17 18 18 16 15 15 15 17 20
14 12 5 9 16 19 21 22 22 15 6 3 7 4 7 12 15 17 15 14 14 14 15 15 17 17 17 17 17 17 18 19
18 15 9 2 7 11 11 11 11 6 1 5 2 2 5 7 13 12 11 11 11 13 16 17 16 18 17 17 16 16 18 21
21 20 15 9 3 2 5 11 8 5 4 2 3 3 4 5 8 9 9 10 12 15 18 17 16 16 16 17 17 17 19 21
19 19 17 16 13 11 11 8 7 8 5 2 4 4 6 9 10 12 13 12 13 17 17 16 16 15 15 16 17 18 19 21
15 16 18 19 19 16 12 8 6 3 4 5 7 7 9 8 10 11 12 14 15 17 18 16 15 16 16 17 17 19 20 20
9 9 9 10 9 8 5 3 2 6 8 9 11 11 12 13 14 15 14 15 18 18 18 18 17 18 18 18 18 19 20 20
2 2 2 5 4 4 4 3 2 2 5 8 12 13 14 16 17 18 17 16 16 19 19 18 20 20 20 19 18 18 19 20
7 6 6 6 8 9 8 9 8 4 6 10 12 13 14 16 17 19 18 20 19 18 20 21 22 21 21 20 19 18 18 18
14 14 13 14 15 15 15 14 12 8 9 12 12 13 13 15 15 16 17 18 17 20 22 21 25 25 23 21 19 18 17 17
23 24 24 23 24 23 20 16 13 13 13 15 13 13 14 14 14 14 15 14 16 18 19 22 25 25 26 22 21 19 18 17
27 30 26 25 25 23 20 16 14 14 16 17 17 16 16 16 16 16 15 15 16 18 21 23 25 27 27 23 21 22 21 17
23 26 23 23 22 23 20 16 14 17 19 19 20 20 20 20 19 18 18 17 17 16 21 24 21 25 28 24 24 22 18 16
20 21 22 21 17 19 17 14 16 17 18 20 21 23 25 25 23 21 21 21 16 15 17 20 23 26 28 25 20 19 17 17
17 15 13 9 13 15 16 17 18 20 20 21 23 25 27 26 25 24 20 15 12 15 16 15 20 28 23 18 17 18 17 18
6 5 6 8 10 12 16 18 19 19 21 22 23 21 19 19 17 15 11 10 11 12 11 17 21 20 18 17 16 16 15 15
Wind_Direction
314 274 262 253 249 246 241 234 228 226 239 241 235 227 227 233 241 251 269 278 278 277 274 270 268 263 259 256 255 252 242 231
316 302 266 248 243 241 236 226 226 228 242 254 255 231 227 251 261 266 274 280 280 279 278 276 272 263 263 263 261 251 234 223
334 316 275 256 246 240 231 224 226 227 213 264 304 303 292 284 283 288 291 287 289 292 288 282 274 269 268 269 266 251 233 225
355 340 269 234 236 238 230 226 222 219 194 200 213 291 307 297 306 304 302 299 297 298 298 290 283 279 273 265 257 251 242 227
30 18 333 239 234 231 223 216 204 183 160 204 260 221 241 303 298 303 303 306 310 312 310 300 288 279 273 265 259 251 242 232
52 52 44 344 248 238 232 198 158 145 351 340 43 15 347 326 296 307 315 321 325 325 322 310 296 282 273 269 264 257 244 232
68 67 64 67 85 166 157 145 129 79 40 319 6 333 304 280 296 299 307 319 322 325 323 315 303 290 280 270 264 258 249 240
78 80 83 85 94 106 126 125 111 102 88 14 331 295 276 281 294 308 314 318 322 317 320 318 310 302 294 279 268 262 256 247
79 85 91 95 100 106 117 130 146 173 260 279 292 277 275 282 288 294 297 305 304 312 305 307 311 314 310 299 284 270 261 251
80 85 103 112 109 112 128 163 243 292 300 302 301 296 294 291 295 296 295 302 304 310 309 303 302 304 305 300 297 282 270 260
150 175 166 160 169 168 179 224 229 339 301 298 292 289 289 287 286 290 288 288 293 302 292 288 289 294 294 293 290 283 273 263
332 314 249 242 239 232 239 231 221 251 286 291 281 278 279 282 286 291 289 292 291 295 294 286 283 283 285 285 285 282 272 263
326 318 310 275 260 246 246 234 236 256 278 287 276 269 275 278 282 286 286 289 290 289 288 287 281 276 276 275 276 272 267 260
303 296 289 279 263 247 236 229 238 256 274 279 275 273 277 276 279 278 279 284 294 301 294 285 277 278 276 271 274 267 264 255
278 276 282 290 262 247 230 225 241 260 270 274 275 279 283 286 293 287 287 292 296 301 298 289 271 266 266 259 260 255 261 247
280 282 278 272 256 232 225 236 251 260 266 272 280 284 288 291 294 290 290 295 296 296 297 292 279 274 261 255 270 256 254 246
283 285 287 276 239 222 227 242 257 266 269 274 275 283 288 292 292 290 291 297 292 287 289 286 276 280 255 243 257 263 254 236
283 285 286 245 221 226 234 251 265 269 273 277 278 284 288 289 288 287 286 293 293 291 288 280 276 263 246 258 263 263 248 240
289 255 232 228 234 253 265 271 279 283 283 286 287 286 282 289 299 301 292 289 285 287 283 286 274 254 258 261 267 249 240 241